Temperature
5 5 4 4 4 3 4 7 8 9 9 9 9 8 7 7 6 6 5 5 5 5 5 5 5 5 5 5 5 5 5 5 4 4 4 4 3 3 3 3 3 2 2 2
4 4 4 4 4 4 5 6 6 7 7 8 8 7 7 6 5 5 5 5 5 5 5 5 5 5 5 5 4 4 4 4 4 4 3 3 3 3 2 2 2 2 2 1
5 4 4 5 5 4 4 5 6 7 8 7 6 6 6 6 5 5 4 4 4 4 4 5 5 5 5 4 4 4 4 3 3 3 3 2 2 2 2 2 1 1 1 1
3 3 4 6 5 5 5 5 5 5 6 6 6 5 5 5 5 4 4 4 4 4 4 4 4 4 4 4 3 3 3 3 2 2 2 2 2 1 1 1 1 1 1 0
3 4 5 5 4 4 4 4 4 4 5 5 4 4 4 4 4 4 4 4 4 4 4 4 4 3 3 3 3 2 2 2 2 2 1 1 1 1 1 1 1 0 0 0
3 4 5 6 4 3 4 4 5 4 4 4 3 5 6 3 3 3 3 3 3 3 3 3 3 3 3 2 2 2 2 2 1 1 1 1 1 1 0 0 0 -0 -0 -0
2 3 5 4 2 3 5 5 4 3 3 3 3 4 3 3 3 3 3 3 3 3 3 2 2 2 2 2 1 1 1 1 1 1 1 0 0 0 -0 -0 -0 -0 -1 -1
2 3 4 2 2 3 4 3 2 2 2 2 2 2 2 2 2 2 2 2 2 2 2 2 1 1 1 1 1 1 1 1 0 0 -0 -0 -0 -1 -1 -1 -1 -1 -2 -2
3 3 2 1 2 2 1 1 1 1 1 1 1 1 1 1 1 1 1 1 1 1 1 1 1 1 0 0 0 0 -0 -0 -0 -0 -1 -1 -1 -1 -1 -1 -2 -2 -3 -3
1 2 1 0 0 1 1 1 1 1 1 1 0 0 0 1 1 1 1 1 0 0 0 0 -0 -0 -0 -0 -0 -1 -1 -1 -1 -1 -1 -1 -1 -2 -2 -2 -3 -3 -3 -3
1 1 0 0 -0 -0 0 0 0 0 0 0 0 0 0 -0 -0 -0 -0 -0 -0 -0 -0 -1 -1 -1 -1 -1 -1 -1 -1 -2 -2 -2 -2 -2 -2 -2 -2 -3 -3 -3 -4 -4
1 1 1 0 -1 -0 -0 -0 -0 -0 -0 -0 -0 -0 -1 -1 -1 -1 -1 -1 -1 -1 -1 -1 -1 -1 -1 -2 -2 -2 -2 -2 -2 -3 -3 -3 -3 -3 -3 -3 -3 -3 -3 -4
-2 -2 -2 -2 -1 -1 -1 -1 -1 -1 -1 -1 -1 -1 -1 -1 -1 -1 -1 -1 -1 -1 -2 -2 -2 -2 -2 -2 -2 -2 -3 -3 -3 -3 -3 -3 -3 -3 -3 -3 -3 -3 -3 -3
-3 -2 -3 -3 -2 -2 -2 -2 -2 -2 -2 -2 -1 -2 -2 -2 -2 -2 -2 -2 -2 -2 -2 -2 -3 -3 -3 -3 -3 -3 -3 -3 -3 -4 -4 -4 -4 -4 -4 -4 -4 -3 -3 -3
-3 -3 -3 -3 -3 -3 -3 -3 -3 -3 -3 -2 -2 -2 -2 -3 -3 -3 -3 -3 -3 -3 -3 -3 -3 -3 -3 -3 -4 -4 -4 -4 -4 -4 -4 -4 -4 -4 -4 -4 -4 -4 -4 -4
-4 -4 -4 -4 -4 -4 -4 -4 -4 -4 -4 -3 -3 -3 -3 -3 -3 -3 -4 -4 -4 -4 -4 -4 -4 -4 -4 -4 -4 -4 -4 -4 -4 -5 -5 -5 -5 -5 -5 -5 -5 -5 -5 -5
-5 -5 -5 -5 -5 -5 -4 -4 -4 -4 -4 -4 -4 -4 -4 -4 -4 -4 -4 -4 -4 -4 -4 -5 -5 -5 -5 -5 -5 -5 -5 -5 -5 -5 -5 -5 -5 -5 -5 -5 -5 -5 -5 -5
-5 -5 -5 -5 -5 -5 -5 -5 -5 -5 -5 -5 -5 -5 -5 -5 -5 -5 -5 -5 -5 -5 -5 -5 -5 -5 -5 -5 -5 -5 -5 -5 -5 -5 -5 -5 -5 -5 -5 -5 -5 -5 -5 -5
-5 -5 -5 -5 -5 -5 -5 -5 -5 -6 -6 -6 -6 -5 -5 -6 -5 -5 -5 -5 -5 -6 -6 -6 -6 -6 -6 -6 -6 -6 -6 -6 -6 -6 -6 -5 -5 -5 -5 -5 -5 -5 -5 -5
-6 -6 -6 -6 -6 -6 -6 -6 -6 -6 -6 -6 -6 -6 -6 -6 -6 -6 -6 -6 -6 -6 -6 -6 -6 -6 -6 -6 -6 -6 -6 -6 -6 -6 -6 -6 -6 -6 -6 -6 -6 -5 -5 -5
-7 -6 -6 -6 -6 -6 -6 -6 -6 -7 -7 -7 -7 -7 -7 -7 -7 -7 -7 -7 -7 -7 -7 -7 -7 -7 -7 -7 -7 -7 -6 -6 -6 -6 -6 -6 -6 -6 -6 -6 -6 -6 -6 -6
-7 -7 -7 -7 -7 -7 -7 -7 -7 -7 -7 -7 -7 -7 -7 -7 -7 -7 -7 -7 -7 -7 -7 -7 -7 -7 -7 -7 -7 -7 -7 -7 -7 -7 -6 -6 -6 -6 -6 -6 -6 -6 -6 -6
-8 -8 -8 -8 -8 -8 -8 -8 -8 -8 -8 -8 -8 -8 -8 -8 -8 -8 -8 -8 -8 -8 -8 -8 -8 -8 -8 -8 -7 -7 -7 -7 -7 -7 -6 -6 -6 -6 -6 -6 -6 -6 -6 -6
-8 -8 -8 -8 -8 -8 -8 -8 -8 -8 -8 -8 -8 -8 -9 -8 -8 -8 -8 -8 -8 -8 -8 -8 -8 -8 -8 -8 -8 -8 -7 -7 -7 -7 -7 -6 -6 -6 -6 -6 -6 -6 -6 -6
-9 -9 -9 -9 -9 -9 -9 -9 -9 -9 -9 -9 -9 -9 -9 -9 -9 -9 -9 -9 -8 -8 -8 -8 -8 -8 -8 -8 -8 -8 -8 -7 -7 -7 -7 -7 -6 -6 -6 -6 -6 -6 -6 -5
-9 -9 -9 -9 -9 -9 -9 -9 -9 -9 -9 -9 -9 -9 -9 -9 -9 -9 -9 -9 -9 -9 -8 -8 -8 -8 -8 -8 -8 -8 -8 -7 -7 -7 -7 -7 -6 -6 -6 -6 -6 -6 -6 -6
-9 -9 -9 -9 -9 -9 -9 -9 -10 -10 -10 -10 -10 -10 -10 -9 -9 -9 -9 -9 -9 -9 -9 -9 -8 -8 -8 -8 -8 -8 -8 -8 -7 -7 -7 -7 -7 -6 -6 -6 -6 -6 -6 -6
Wind_Speed
3 1 5 6 11 14 14 12 11 10 10 8 6 3 2 2 2 2 2 2 2 2 2 3 3 3 2 2 2 2 3 3 4 5 5 6 7 8 9 9 10 10 10 11
3 3 4 5 9 14 15 13 14 10 11 7 5 4 4 3 3 3 3 3 3 3 3 3 3 3 2 2 2 2 3 3 4 5 6 6 7 8 9 10 10 10 10 11
4 3 2 8 11 13 10 11 11 14 12 5 5 6 5 4 4 4 4 3 4 4 4 4 3 3 3 3 2 3 3 4 4 5 6 7 8 9 9 10 10 10 11 11
3 4 8 5 2 9 11 10 11 9 6 6 6 4 3 4 4 4 4 4 4 3 3 3 2 2 2 2 2 3 3 4 4 5 7 8 8 9 10 9 9 10 11 11
4 6 8 5 3 5 8 7 8 10 8 5 2 2 3 3 3 4 4 4 3 2 2 2 2 2 1 2 2 3 4 4 5 6 7 8 8 10 10 9 9 10 10 11
4 6 7 2 1 3 5 4 3 6 6 4 4 5 3 1 2 2 2 1 1 1 1 1 1 1 2 2 3 4 4 5 5 6 7 7 8 9 9 9 9 10 10 10
6 6 5 2 1 6 6 2 1 3 4 4 4 3 0 1 1 1 1 1 0 0 0 1 1 1 2 2 3 4 4 5 5 6 6 7 8 8 8 8 9 9 9 9
5 6 5 2 5 5 0 2 1 1 2 3 2 1 0 1 1 1 1 1 1 0 1 1 1 1 2 3 3 4 4 5 5 6 6 6 7 7 8 8 8 8 8 9
5 4 1 4 3 1 1 1 1 0 0 1 2 1 0 0 1 1 1 1 1 1 1 2 2 1 2 3 4 4 4 5 6 6 6 6 6 7 7 7 6 7 7 8
3 4 2 2 1 1 1 2 2 1 0 1 2 2 1 0 0 1 1 1 1 1 1 2 3 2 3 3 3 4 5 5 6 6 6 6 5 5 6 6 6 7 7 8
4 3 2 2 2 2 2 1 1 2 1 1 1 1 1 1 0 0 1 1 1 1 2 3 3 3 3 3 3 4 5 5 5 5 6 6 6 5 6 6 6 7 7 7
4 3 3 3 3 2 1 2 2 1 1 0 1 1 1 1 0 0 1 1 1 2 2 3 3 4 4 4 3 4 4 5 5 5 5 5 6 6 6 7 9 10 10 10
4 4 3 3 2 2 1 2 2 1 1 0 0 1 1 0 0 1 1 2 2 3 3 3 3 4 4 4 4 4 4 5 5 5 5 5 6 6 7 7 8 9 10 10
2 2 2 2 2 2 2 2 2 2 2 2 1 1 1 1 1 1 2 2 3 2 2 3 3 3 4 4 4 4 5 5 5 5 5 5 5 6 6 7 7 7 8 9
3 3 1 1 2 2 2 2 3 2 3 3 2 2 1 1 1 2 2 2 2 2 2 3 3 4 4 4 5 5 4 4 5 5 5 5 5 5 5 6 6 7 7 8
3 2 2 1 1 2 2 2 2 2 2 2 2 2 2 1 1 2 2 2 2 2 3 3 4 4 5 4 5 4 4 6 6 5 5 5 5 5 5 5 6 6 6 7
1 1 1 1 1 1 2 1 1 1 1 1 1 1 1 1 1 2 2 3 2 2 3 3 4 5 4 4 4 4 4 5 7 5 4 5 4 5 5 5 5 5 6 7
2 1 1 1 1 0 1 2 1 1 1 1 1 1 1 1 2 2 3 3 3 3 4 4 5 5 5 5 4 4 4 5 4 4 4 4 5 5 5 5 5 6 6 7
3 2 2 2 1 1 1 1 1 1 1 1 1 1 1 2 2 2 2 2 3 4 5 6 7 6 5 5 5 4 4 4 5 4 4 5 5 5 4 5 5 5 5 5
3 3 3 3 3 2 1 1 1 1 1 1 1 1 1 2 2 2 2 2 3 4 5 6 6 5 5 5 6 4 4 5 5 5 4 4 5 5 5 5 5 5 5 5
3 3 3 3 3 3 2 1 1 2 2 2 1 1 1 2 2 2 2 3 4 5 5 6 5 5 5 5 5 4 4 4 4 4 5 5 5 5 5 5 4 4 4 4
3 3 3 3 3 3 3 2 2 2 2 2 2 2 2 2 3 3 2 3 4 6 5 4 4 6 7 6 4 4 4 4 4 4 4 5 5 5 5 5 4 4 4 4
2 2 2 2 2 2 3 3 3 2 2 2 2 2 2 3 3 3 3 3 4 6 5 4 6 9 9 5 4 4 4 5 5 5 5 5 5 5 5 5 4 4 4 4
2 2 2 2 2 3 3 3 3 3 2 2 2 2 3 3 3 2 3 6 7 8 5 6 9 9 8 4 4 4 4 5 5 5 5 5 5 4 4 4 4 4 4 4
2 2 2 2 2 2 2 2 2 3 3 3 3 3 3 2 3 4 4 5 7 7 5 7 9 9 6 4 5 5 5 5 5 5 5 5 5 5 5 4 4 4 4 3
2 2 2 2 1 1 1 1 2 2 2 3 3 3 3 3 3 4 4 5 6 7 6 5 5 6 5 5 5 5 5 5 5 5 5 5 5 5 4 4 5 4 3 3
2 2 2 2 2 2 2 2 2 2 2 3 3 4 4 4 4 4 5 5 5 5 5 5 5 4 4 5 5 5 5 4 4 5 5 4 4 4 4 5 4 3 3 3
Wind_Direction
242 207 174 200 201 199 209 220 229 237 234 234 237 234 214 195 181 188 197 207 217 223 223 223 224 228 236 245 248 250 257 267 277 287 292 294 295 296 297 296 295 293 292 291
225 213 212 229 217 208 218 227 236 250 254 251 246 249 249 231 214 223 224 231 246 251 250 246 236 235 238 246 256 256 264 278 291 297 300 301 301 302 302 301 299 298 295 294
221 209 233 247 225 208 212 217 220 234 245 228 230 240 244 237 226 230 240 250 253 259 263 261 250 237 237 245 254 262 275 289 298 302 302 303 305 305 304 303 302 300 299 297
186 177 230 246 214 205 213 228 225 237 247 234 240 244 258 247 237 240 248 255 262 270 273 269 256 250 252 247 252 270 284 295 304 306 304 306 306 306 306 305 302 300 298 297
194 220 252 261 209 194 202 238 233 232 244 244 219 245 251 236 241 250 254 256 259 264 264 260 251 245 242 257 270 280 290 300 305 305 304 305 305 308 309 308 304 302 299 298
203 215 231 255 184 194 177 235 236 216 226 224 178 219 233 5 275 266 271 248 246 261 255 255 258 231 230 257 274 286 295 299 302 302 299 300 304 307 307 305 301 301 300 300
217 229 249 309 160 163 192 222 21 201 204 190 199 234 15 360 342 325 5 26 126 175 248 298 283 243 251 272 284 298 303 302 303 304 303 304 306 307 308 306 304 304 305 305
202 216 230 110 147 179 220 29 41 119 169 185 197 169 56 11 20 41 47 39 36 42 357 346 323 270 276 289 304 310 307 304 305 309 310 308 309 310 308 306 306 310 311 311
202 218 346 156 169 166 28 6 355 349 311 180 181 199 223 356 30 45 53 41 21 24 359 344 328 298 288 305 313 309 307 307 310 311 311 308 308 309 310 309 309 310 311 313
216 240 256 220 261 308 331 342 348 2 28 180 204 206 189 147 89 72 39 29 26 16 350 342 343 327 308 310 310 305 306 308 310 312 312 314 311 308 308 308 307 308 310 313
235 267 286 268 279 293 314 342 356 360 3 204 186 194 183 174 170 78 7 360 354 335 321 324 333 332 328 320 312 308 307 307 309 310 310 311 310 306 303 301 303 307 309 310
244 241 241 262 285 307 309 309 312 329 345 356 192 189 177 180 230 339 341 335 324 314 309 313 322 326 329 323 313 306 304 305 307 310 314 313 314 311 302 299 310 311 309 309
275 295 284 277 310 350 341 323 321 307 251 218 87 143 146 156 326 339 330 319 309 305 304 307 314 321 326 324 315 305 301 304 307 309 313 314 314 314 316 319 316 313 317 321
292 293 272 304 334 357 15 22 46 54 57 70 77 82 93 83 26 346 328 322 315 306 305 310 315 319 322 319 313 308 307 306 308 305 306 308 309 309 311 315 319 321 326 331
327 309 261 310 25 34 47 70 77 64 54 49 52 60 66 55 4 340 334 331 327 323 323 322 319 321 326 321 315 311 311 313 310 305 306 307 308 308 309 310 311 315 321 329
337 26 88 94 74 57 53 61 73 56 42 40 41 39 33 29 3 347 341 331 317 317 321 321 318 320 324 321 316 311 308 311 311 305 306 307 308 308 308 310 313 316 320 325
344 21 48 60 30 27 22 29 64 56 39 35 24 20 20 19 6 358 352 344 332 320 321 321 319 321 321 318 314 309 308 309 312 306 305 305 304 303 304 307 309 312 315 322
322 303 282 239 231 40 29 28 42 43 18 356 13 29 16 358 338 337 340 341 344 346 344 335 328 322 319 319 316 309 305 305 306 306 305 304 303 302 303 305 307 310 315 322
27 41 51 55 76 101 73 37 28 29 24 24 27 9 351 337 330 328 331 340 341 335 335 336 330 325 322 323 321 307 304 304 305 305 304 305 306 306 305 305 307 310 315 321
39 49 58 59 58 70 75 52 45 45 31 27 37 25 9 352 344 340 338 336 330 321 319 322 323 321 320 318 319 308 306 305 305 306 307 307 309 308 306 307 309 312 317 320
34 44 52 52 47 43 40 35 53 51 33 35 48 33 357 344 343 336 328 329 333 333 326 323 323 321 320 319 316 311 309 308 308 307 309 310 309 309 309 309 312 314 317 320
24 41 46 48 54 42 29 33 50 54 47 42 39 28 6 349 344 338 323 309 317 326 326 320 320 322 324 319 312 311 310 309 309 308 309 310 310 311 312 314 313 316 318 319
19 34 44 47 54 52 42 38 40 44 40 27 16 1 349 335 330 325 325 327 324 326 325 318 322 324 325 321 314 313 313 311 308 307 307 307 307 306 306 308 308 311 315 320
26 36 44 49 63 64 47 30 28 29 20 7 359 344 332 328 330 322 309 317 326 324 320 320 325 327 327 321 316 314 313 311 308 307 307 306 304 303 303 304 305 309 314 318
28 42 51 56 56 47 36 27 27 21 15 8 360 352 340 325 313 317 318 317 321 323 318 321 326 328 326 317 315 312 310 309 309 308 304 304 305 304 305 304 305 306 311 313
29 33 32 31 26 17 15 13 10 2 357 353 348 343 339 331 321 316 313 315 316 317 316 313 317 320 317 314 312 310 309 309 310 309 307 306 304 303 303 303 303 304 305 306
38 36 38 34 23 14 6 357 347 340 338 333 325 327 328 327 324 324 320 318 318 319 317 316 317 317 315 312 310 309 307 308 307 307 307 306 305 303 302 302 301 301 302 298
Height
1432 1434 1436 1436 1440 1444 1443 1435 1431 1426 1430 1429 1431 1434 1436 1438 1439 1440 1441 1441 1442 1443 1443 1444 1444 1444 1445 1445 1445 1445 1444 1444 1443 1441 1440 1438 1436 1434 1431 1428 1425 1422 1418 1415
1433 1434 1435 1435 1435 1437 1437 1436 1433 1432 1430 1429 1432 1434 1436 1437 1438 1439 1439 1439 1440 1440 1440 1441 1441 1441 1441 1442 1441 1441 1440 1440 1439 1437 1435 1433 1431 1429 1426 1423 1420 1416 1413 1409
1428 1433 1433 1428 1426 1431 1431 1429 1429 1427 1425 1429 1431 1432 1433 1434 1436 1436 1437 1437 1437 1437 1438 1438 1438 1438 1438 1438 1438 1438 1437 1436 1434 1433 1431 1429 1427 1424 1421 1417 1414 1411 1407 1403
1429 1434 1430 1416 1420 1422 1424 1425 1426 1425 1425 1427 1428 1430 1431 1432 1433 1434 1435 1435 1435 1435 1435 1435 1435 1435 1435 1435 1435 1434 1433 1432 1431 1429 1427 1424 1422 1419 1416 1413 1409 1405 1402 1398
1427 1423 1416 1416 1420 1422 1423 1423 1423 1424 1424 1426 1428 1429 1429 1430 1430 1431 1432 1432 1432 1432 1432 1432 1432 1432 1432 1432 1431 1431 1430 1428 1427 1425 1422 1420 1417 1415 1412 1408 1404 1401 1397 1393
1426 1420 1415 1412 1418 1420 1422 1420 1419 1421 1422 1424 1426 1425 1426 1428 1428 1428 1429 1430 1430 1430 1430 1430 1430 1430 1429 1429 1428 1427 1426 1425 1423 1421 1419 1416 1413 1410 1407 1404 1400 1396 1392 1389
1422 1418 1412 1416 1419 1420 1420 1416 1419 1419 1420 1422 1424 1424 1426 1426 1426 1426 1427 1427 1428 1428 1428 1428 1427 1427 1426 1426 1425 1424 1423 1421 1419 1417 1415 1412 1409 1406 1403 1400 1396 1392 1388 1384
1420 1417 1416 1418 1419 1419 1417 1419 1419 1419 1420 1422 1422 1424 1424 1425 1425 1425 1425 1425 1426 1426 1425 1425 1425 1424 1423 1423 1422 1420 1419 1417 1416 1414 1411 1409 1406 1403 1399 1396 1392 1388 1384 1380
1415 1415 1416 1417 1417 1418 1418 1419 1419 1419 1420 1421 1421 1422 1423 1423 1423 1424 1424 1424 1424 1424 1424 1423 1423 1422 1421 1420 1418 1417 1416 1414 1412 1410 1408 1405 1402 1399 1396 1392 1389 1385 1381 1377
1415 1415 1416 1417 1417 1417 1418 1418 1418 1419 1419 1420 1420 1421 1422 1422 1422 1422 1422 1422 1422 1422 1422 1421 1421 1420 1418 1417 1415 1414 1412 1411 1409 1407 1404 1402 1399 1396 1393 1389 1386 1382 1379 1375
1414 1414 1415 1415 1415 1416 1417 1418 1418 1418 1418 1418 1419 1420 1420 1420 1421 1421 1421 1421 1421 1420 1420 1419 1418 1417 1415 1414 1413 1411 1410 1408 1406 1404 1401 1398 1396 1393 1390 1387 1384 1381 1377 1374
1410 1413 1414 1414 1414 1415 1415 1416 1416 1416 1417 1417 1418 1418 1419 1419 1419 1419 1419 1419 1419 1418 1417 1416 1415 1414 1413 1411 1410 1408 1407 1405 1403 1400 1398 1395 1392 1390 1387 1385 1381 1378 1375 1372
1413 1412 1413 1413 1413 1414 1414 1414 1415 1415 1415 1416 1416 1417 1417 1417 1418 1418 1418 1417 1417 1416 1415 1414 1412 1411 1410 1409 1407 1405 1404 1402 1400 1397 1395 1392 1390 1387 1384 1381 1378 1375 1372 1369
1411 1411 1412 1412 1412 1413 1413 1413 1413 1414 1414 1414 1415 1415 1416 1416 1416 1416 1416 1415 1414 1413 1412 1411 1409 1408 1407 1406 1404 1403 1401 1399 1397 1395 1392 1390 1387 1384 1381 1378 1375 1372 1369 1366
1411 1410 1411 1411 1411 1412 1412 1412 1412 1412 1413 1413 1414 1414 1414 1414 1414 1414 1413 1412 1412 1410 1409 1408 1407 1406 1404 1403 1401 1400 1398 1396 1394 1392 1390 1387 1385 1382 1379 1376 1373 1370 1366 1364
1410 1409 1410 1410 1410 1411 1411 1411 1411 1411 1412 1412 1412 1413 1413 1413 1412 1412 1411 1410 1409 1408 1407 1406 1404 1403 1401 1400 1398 1397 1395 1393 1391 1389 1387 1384 1382 1380 1377 1375 1372 1368 1365 1362
1409 1409 1409 1409 1409 1410 1410 1410 1410 1410 1410 1411 1411 1411 1411 1411 1410 1410 1409 1408 1407 1406 1404 1403 1402 1400 1399 1397 1395 1394 1392 1390 1388 1386 1384 1382 1380 1378 1375 1373 1370 1367 1364 1362
1409 1409 1409 1408 1408 1409 1409 1410 1410 1410 1410 1410 1410 1410 1410 1409 1409 1408 1407 1406 1405 1404 1402 1401 1399 1397 1396 1394 1393 1391 1389 1387 1386 1384 1381 1379 1378 1376 1374 1371 1369 1366 1363 1361
1409 1408 1408 1408 1408 1409 1409 1409 1409 1409 1409 1409 1409 1409 1408 1408 1407 1406 1405 1404 1403 1401 1400 1398 1397 1395 1393 1392 1390 1388 1387 1385 1383 1381 1379 1377 1376 1374 1372 1370 1367 1365 1362 1360
1409 1409 1408 1408 1408 1408 1408 1408 1408 1408 1408 1408 1408 1407 1407 1406 1405 1404 1403 1402 1401 1399 1398 1396 1394 1393 1391 1389 1388 1386 1384 1382 1380 1379 1377 1375 1373 1372 1370 1368 1366 1364 1362 1359
1409 1408 1408 1408 1408 1408 1408 1408 1408 1407 1407 1407 1406 1406 1405 1405 1404 1403 1401 1400 1399 1397 1396 1394 1392 1390 1389 1387 1385 1384 1382 1380 1378 1376 1375 1373 1372 1370 1368 1367 1365 1363 1361 1358
1409 1409 1408 1408 1407 1407 1407 1407 1407 1407 1406 1406 1405 1405 1404 1403 1402 1401 1400 1399 1397 1395 1394 1392 1390 1388 1387 1385 1383 1381 1380 1378 1376 1375 1373 1371 1370 1368 1367 1365 1363 1362 1360 1358
1410 1409 1408 1408 1408 1407 1407 1407 1407 1406 1406 1405 1404 1404 1403 1402 1401 1400 1398 1397 1395 1394 1392 1390 1388 1386 1385 1383 1381 1379 1378 1376 1374 1373 1371 1370 1368 1367 1365 1364 1362 1361 1359 1357
1410 1409 1409 1408 1408 1408 1407 1407 1406 1406 1405 1404 1404 1403 1402 1401 1399 1398 1397 1395 1394 1392 1390 1388 1386 1384 1383 1381 1379 1377 1375 1374 1372 1371 1369 1368 1367 1365 1364 1362 1361 1359 1358 1357
1410 1409 1409 1409 1408 1408 1407 1407 1406 1405 1405 1404 1403 1402 1401 1399 1398 1397 1395 1393 1392 1390 1388 1386 1384 1382 1381 1379 1377 1375 1374 1372 1370 1369 1367 1366 1365 1363 1362 1361 1359 1358 1357 1356
1410 1410 1409 1409 1409 1408 1407 1407 1406 1405 1404 1403 1402 1401 1400 1398 1397 1395 1393 1391 1390 1388 1386 1384 1382 1380 1378 1377 1375 1373 1372 1370 1369 1367 1366 1364 1363 1362 1361 1360 1358 1357 1356 1355
1410 1410 1410 1409 1409 1408 1407 1406 1405 1404 1403 1402 1401 1400 1398 1397 1395 1393 1391 1389 1388 1386 1384 1382 1380 1378 1377 1375 1373 1371 1370 1368 1367 1365 1364 1363 1361 1360 1359 1358 1357 1357 1356 1355